Location: College Rock
(37.2713°N, 119.1740°W)
Time: 03:45:10
(UTC+00:00)

Nadezhda 4 Rocket - Pass Details

Date: 29 October 2020
Orbit: 950 x 991 km, 82.9° (Epoch: 23 November)

Event Time Altitude Azimuth Distance (km) Brightness Sun altitude
Rises 12:01:17 0° 186° (S) 3,607 6.9 -27.9°
Reaches altitude 10° 12:03:45 10° 187° (S) 2,665 6.2 -27.4°
Maximum altitude 12:09:51 86° 275° (W) 959 3.8 -26.2°
Drops below altitude 10° 12:16:01 10° 6° (N) 2,692 6.4 -24.9°
Sets 12:18:32 0° 7° (N) 3,646 7.1 -24.4°
